Date,TemperatureHighF,TemperatureAvgF,TemperatureLowF,DewpointHighF,DewpointAvgF,DewpointLowF,HumidityHigh,HumidityAvg,HumidityLow,PressureMaxIn,PressureMinIn,WindSpeedMaxMPH,WindSpeedAvgMPH,GustSpeedMaxMPH,PrecipitationSumIn
2013-9-1,90.3,77.2,66.9,72.4,70.1,66.6,99,80,49,30.14,29.89,8,2,8,1.59
2013-9-2,90.5,76.6,68.4,73.2,69.1,64.7,99,80,44,29.93,29.86,9,3,11,0.00
2013-9-3,83.5,74.4,64.9,66.2,59.9,55.0,84,62,42,30.10,29.89,15,4,16,0.00
2013-9-4,81.9,68.6,57.7,63.5,57.8,52.0,94,71,45,30.19,30.10,9,4,9,0.00
2013-9-5,82.9,69.5,57.6,62.0,55.6,51.5,84,63,41,30.26,30.13,11,4,15,0.00
2013-9-6,75.7,64.5,55.8,54.6,50.8,47.1,76,62,44,30.34,30.23,10,4,11,0.00
2013-9-7,82.9,67.3,53.2,59.9,54.4,49.4,89,66,41,30.25,30.06,8,3,11,0.00
2013-9-8,88.3,74.6,63.3,67.3,61.3,52.4,82,64,45,30.15,29.98,9,3,10,0.00
2013-9-9,82.9,70.9,61.7,67.2,60.5,51.5,86,70,53,30.28,30.15,11,4,12,0.00
2013-9-10,93.9,78.7,67.3,72.2,69.0,65.3,95,74,48,30.28,30.20,11,4,11,0.00
2013-9-11,95.2,80.8,71.1,75.1,70.5,67.1,94,73,44,30.27,30.13,11,3,14,0.00
2013-9-12,92.3,75.8,68.4,72.7,67.8,63.2,94,78,43,30.14,29.88,15,3,18,0.08
2013-9-13,73.2,65.6,54.9,63.2,54.6,48.0,93,69,44,30.08,29.86,25,6,27,0.02
2013-9-14,66.9,56.4,49.6,48.5,45.2,42.1,84,67,46,30.26,30.09,11,4,14,0.00
2013-9-15,78.6,62.4,47.3,58.9,52.0,44.7,94,71,45,30.30,30.17,12,4,13,0.00
2013-9-16,67.5,61.4,55.4,60.3,56.2,52.7,98,84,62,30.34,30.15,14,3,17,0.05
2013-9-17,68.2,57.4,50.0,55.1,46.2,34.3,93,69,29,30.50,30.34,13,4,13,0.00
2013-9-18,73.2,57.6,44.2,53.0,47.4,41.3,93,71,42,30.41,30.25,10,3,11,0.00
2013-9-19,57.6,56.0,54.3,53.0,52.2,50.8,91,87,84,30.29,30.25,5,2,5,0.00
2013-9-20,89.8,73.8,66.7,70.4,64.2,63.0,88,73,53,30.11,29.92,15,3,15,0.15
2013-9-21,70.3,65.5,59.7,66.5,63.2,59.5,99,92,81,30.04,29.78,11,3,21,0.45
2013-9-22,71.1,61.6,50.9,60.0,51.8,44.2,99,72,45,30.08,29.86,17,4,17,0.00
2013-9-23,65.7,54.4,47.1,49.7,46.4,43.2,96,76,48,30.21,30.08,11,3,12,0.00
2013-9-24,73.2,57.8,45.9,55.6,49.2,43.7,95,75,51,30.20,30.05,8,4,9,0.00
2013-9-25,74.5,60.6,49.6,55.6,49.3,45.7,91,69,40,30.09,29.99,8,4,11,0.00
2013-9-26,75.4,63.1,52.3,52.7,49.1,45.7,86,62,41,30.18,30.04,13,4,13,0.00
2013-9-27,75.7,61.3,51.1,55.4,51.4,46.6,95,72,43,30.32,30.18,8,3,10,0.00
2013-9-28,65.3,58.1,52.3,57.9,52.9,49.0,99,84,58,30.40,30.31,7,3,10,0.01
2013-9-29,74.1,59.9,48.6,54.8,50.5,47.7,99,75,42,30.31,30.15,9,3,9,0.00
2013-9-30,78.1,63.3,50.4,56.9,52.9,48.0,95,71,44,30.18,30.05,8,3,9,0.00